Temp_Advection
nan nan nan nan nan nan nan nan nan nan nan nan nan nan nan nan nan nan nan nan nan nan nan nan nan nan nan nan nan nan nan nan nan nan nan nan nan nan nan nan nan nan nan nan nan nan nan nan nan nan nan nan nan nan nan nan nan nan nan nan nan nan
nan 1 1 0 0 0 -0 -0 -0 -0 -0 -0 -0 0 0 0 0 0 0 0 0 -0 0 0 -0 -0 -0 -0 -0 -0 -0 -0 -0 -0 0 0 -0 -0 -0 -0 -0 -0 -0 -0 -0 -0 -0 -0 -0 -0 -0 0 0 0 -0 -0 -0 -0 -0 0 0 nan
nan -0 1 1 0 -0 0 -0 -0 -0 -0 -0 -0 -0 0 0 0 0 0 0 -0 -0 0 0 -0 0 0 -0 -0 -0 -0 -0 0 -0 -0 -0 -0 -0 -0 -0 -0 -0 -0 0 -0 -0 -0 -0 0 0 0 0 0 -0 -0 -0 -0 -0 -0 -0 -0 nan
nan -1 0 1 0 0 0 0 0 0 -0 -0 -0 -0 0 0 0 -0 -0 0 -0 0 0 0 0 0 -0 -0 0 -0 -0 -0 0 0 -0 -0 -0 -0 -0 -0 0 0 0 0 0 0 0 0 0 0 0 0 0 0 0 -0 -0 -0 -0 -0 -0 nan
nan -0 -0 0 1 0 0 0 0 0 0 0 0 0 0 0 0 0 0 0 0 -0 0 -0 0 0 -0 -0 -0 -0 -0 0 0 0 -0 -0 0 -0 -0 0 0 0 0 0 0 0 0 0 0 0 0 0 0 0 0 0 -0 -0 -0 -0 -0 nan
nan -0 -0 0 1 1 0 0 0 0 1 0 0 0 0 -0 -0 -0 -0 0 -0 -0 0 0 -0 0 0 0 -0 -0 -0 -0 -0 -0 -0 -0 -0 -0 -0 0 -0 -0 0 0 0 0 0 0 0 0 0 0 0 0 0 0 0 0 -0 -0 -0 nan
nan -0 -0 -0 0 0 0 0 0 0 0 0 0 0 0 -0 -0 -0 -0 -0 -0 0 0 0 0 0 0 -0 -0 -0 -0 -0 -0 -0 -0 -0 -0 -0 -0 0 0 0 0 0 0 0 0 0 0 0 0 0 0 0 0 0 0 0 0 0 0 nan
nan -0 -0 -0 -0 0 -0 -0 -0 -0 -0 0 -0 0 0 -0 -0 -0 -0 -0 -0 -0 0 0 0 0 0 -0 -0 -0 0 -0 -0 -0 -0 0 0 0 0 0 0 0 0 0 0 0 0 0 0 0 0 0 0 0 0 0 0 0 0 0 0 nan
nan 0 -0 -0 -0 -0 -0 0 -0 -0 -0 -0 -0 0 -0 -0 -0 -0 -0 -0 -0 -0 -0 -0 0 0 0 -0 -0 -0 -0 -0 -0 -0 -0 -0 0 0 0 0 0 0 0 0 -0 -0 -0 -0 -0 0 0 0 0 0 0 0 0 0 0 0 0 nan
nan 0 -0 -0 0 -0 -0 0 -0 -0 -0 -1 -0 -0 -1 -0 0 0 0 -0 -0 -0 -1 -1 -0 -0 -0 -0 -0 -0 -0 -0 -0 -0 -0 0 0 0 0 0 -0 -0 -0 -0 -0 -0 -0 -0 0 0 0 0 0 0 0 0 0 0 0 0 0 nan
nan 0 -0 -0 0 0 -0 0 0 0 -0 -0 -0 -1 -1 -0 0 0 0 -0 0 -0 -0 -0 -1 -0 -0 -0 0 0 0 -0 -0 0 0 -0 0 -0 0 0 -0 -0 -0 -0 -0 -0 -0 0 0 0 -0 -0 0 0 0 0 0 0 -0 0 0 nan
nan 0 0 -0 -0 0 -0 -0 -0 -0 -0 0 -0 -1 -0 -0 -0 -0 -0 -0 -0 -0 -0 -0 -0 -0 -0 -0 0 0 0 -0 -0 0 0 -0 -0 -0 -0 0 -0 -0 -0 -0 -0 -0 0 0 0 0 -0 -0 -0 -0 -0 -0 0 0 -0 -0 0 nan
nan 0 0 -0 -0 -0 -0 -1 -1 -0 0 0 -0 -1 0 0 -0 -1 -1 -0 -0 -0 -0 -0 0 -0 -0 -0 -0 -0 -0 -0 -0 -0 -0 -0 -0 0 0 0 -0 -0 -0 -0 -0 0 -0 -0 -0 -0 -0 -0 -0 -0 -0 -0 -0 -0 -0 0 0 nan
nan 0 0 0 -0 -0 -0 -0 -1 -1 0 -0 -1 -0 0 0 -0 -0 -1 -0 -0 -0 -0 0 0 -0 -0 -0 -0 -0 -0 -0 0 -0 -0 -0 0 0 0 -0 -0 -0 -0 -0 -0 -0 -0 -0 -0 -0 -0 0 -0 0 0 -0 -0 -0 -0 -0 0 nan
nan -0 -0 0 0 -0 -0 0 -0 -0 -0 -1 -1 -0 0 0 -0 -0 -0 -0 -0 0 0 0 0 0 0 0 -0 -0 -0 0 0 -0 -0 0 0 0 0 -0 -0 -0 -0 0 0 0 -0 -0 -0 -0 0 -0 0 0 0 0 0 -0 -0 -0 0 nan
nan -1 -1 -0 -0 -0 0 0 0 0 -0 -1 -1 0 1 0 0 -0 -0 -0 0 0 0 0 0 0 0 0 -0 0 0 0 0 -0 0 0 -0 0 0 -0 -0 -0 0 0 0 0 -0 -0 -0 0 0 0 0 0 0 0 -0 -0 0 -0 -0 nan
nan -1 -1 -1 -1 -0 0 -0 -0 0 -0 -1 -1 0 1 1 0 0 -0 -0 0 0 0 0 0 0 0 0 0 0 0 0 0 -0 -0 -0 0 0 -0 -0 -0 -0 0 -0 0 0 0 -0 -0 0 0 0 0 0 -0 0 -0 -0 0 -0 -0 nan
nan -1 -1 -1 -1 -0 -0 -1 -1 -0 -0 -1 -0 0 1 0 0 0 0 0 0 0 0 0 0 0 0 0 0 0 0 0 -0 -0 -0 -0 0 0 -0 -0 -0 0 0 -0 -0 0 0 -0 -0 -0 0 0 0 0 -0 0 -0 -0 -0 -0 -0 nan
nan -0 -0 -0 0 0 -0 -1 -0 -0 -0 -1 -0 0 0 0 0 0 0 0 0 -0 -0 -0 0 -0 0 0 1 0 -0 -0 -0 -0 -0 -0 0 0 -0 -0 0 0 0 -0 -0 0 -0 -0 -0 -0 -0 -0 -0 0 -0 -0 -0 -0 -0 -0 -0 nan
nan -0 -0 0 1 0 -0 -0 -0 -0 -1 -1 -0 0 0 0 -0 0 0 0 0 -0 -1 -0 -0 0 0 1 0 -1 -1 -1 -1 -1 -1 0 1 1 -0 -1 -0 0 0 -0 0 0 -0 -1 -0 -0 -0 -0 -0 0 -0 -0 -0 -0 -0 -0 -0 nan
nan -0 0 1 1 -0 -0 -0 -0 -0 -0 0 0 0 1 0 0 0 0 0 0 -0 -1 -0 0 1 1 0 -1 -1 -0 -0 -0 -0 -0 0 0 0 -0 -1 -0 -0 -0 -0 1 0 -0 -0 -0 -0 -0 -0 -0 -0 0 0 -0 -0 -0 -0 0 nan
nan 0 0 1 1 0 0 1 1 0 0 1 0 1 1 0 0 1 1 0 0 0 0 -0 1 1 0 -0 -0 -0 0 0 -0 -0 -0 -0 -0 -0 0 0 0 -0 -0 -0 1 0 -0 0 0 -0 -0 -0 -0 -0 0 0 0 0 0 -0 -0 nan
nan 1 1 1 1 1 1 1 1 0 0 0 0 0 0 0 0 1 1 0 0 0 0 -0 0 -0 -1 -1 -0 -0 0 0 -0 -0 -0 -0 -0 0 0 1 0 0 0 -0 0 -0 -0 0 0 -0 0 0 -0 0 0 0 -0 0 0 0 -0 nan
nan 0 1 1 1 1 0 0 -0 -0 -0 0 0 0 0 1 0 0 -0 -0 -0 0 0 0 0 -0 -0 -0 0 -0 0 -0 -1 -0 0 0 0 0 0 0 0 0 1 1 -0 -1 -0 0 0 -0 0 0 -0 0 0 -0 -0 -0 0 0 -0 nan
nan 0 1 0 -0 -0 0 0 -0 -0 0 0 0 1 1 0 0 0 -0 -0 0 0 0 0 0 -0 -0 0 1 1 0 -0 -0 -0 0 0 1 1 1 -0 -1 -0 0 1 1 -1 -1 -0 0 0 -0 0 0 0 0 -0 -0 0 0 0 0 nan
nan 1 0 -0 -0 0 1 0 -0 0 1 1 0 0 -0 0 1 0 -0 0 0 0 0 0 0 0 -0 -0 1 1 1 0 0 -0 -0 -0 0 1 1 0 -1 -1 -1 1 1 -0 -1 -0 0 0 0 0 0 0 -0 0 0 0 0 0 0 nan
nan 1 -0 -0 -0 1 1 -0 -0 0 0 0 0 0 -0 -0 -0 -0 0 0 0 0 -0 -0 0 0 0 0 1 1 1 0 0 -0 -1 -1 -0 0 0 0 0 -0 -0 0 0 0 -0 -1 -0 0 0 0 0 0 0 0 0 0 -0 -0 -0 nan
nan 0 -0 -0 -0 0 -0 -0 -0 -0 0 0 -0 -0 -0 0 0 0 0 0 1 0 -0 -0 0 1 0 0 1 0 0 0 0 0 -0 -1 -0 -0 0 0 0 0 -0 0 1 1 1 -0 -1 0 1 0 0 0 0 0 0 0 0 -0 -0 nan
nan 0 -0 -0 -0 -0 -0 -0 0 0 1 0 -0 -0 -0 0 0 -0 0 1 1 0 -0 -0 0 1 1 0 0 0 0 0 0 1 0 -0 -0 -0 0 0 0 0 -0 0 1 1 1 1 -0 -1 0 0 0 1 1 1 0 0 0 0 -0 nan
nan 0 0 -0 -0 0 0 -0 0 1 0 -0 -0 0 -0 -0 0 0 0 1 1 -0 -1 -1 -0 1 1 1 0 0 0 0 0 -0 -0 -0 0 0 0 0 0 0 0 -0 0 0 1 1 1 -0 -1 -0 0 0 1 1 0 0 0 -0 -0 nan
nan 1 0 0 0 0 -0 -0 0 1 0 0 0 0 0 1 1 1 0 0 0 0 -0 -1 -1 0 1 0 -0 -0 0 0 -0 -0 -1 -1 -0 0 1 1 0 -0 -0 0 1 1 0 1 1 0 -0 -1 -1 0 1 1 0 -0 -0 -0 0 nan
nan 0 -0 0 0 -0 -0 0 0 0 0 0 0 0 0 1 1 0 0 0 1 1 0 -0 -0 -0 -0 0 -0 -0 0 -0 -0 -1 -0 -0 0 1 0 0 0 0 0 0 1 1 -0 0 1 1 -0 -1 -1 1 1 0 -0 -0 0 0 0 nan
nan 0 -0 0 0 0 0 0 0 -0 0 0 0 0 0 0 0 0 0 0 0 0 0 0 0 -0 -0 -0 0 0 0 -0 -1 -1 -0 0 0 1 1 -0 -0 -0 0 0 0 0 -0 0 1 1 -0 -1 -0 0 0 -0 -0 -0 0 0 1 nan
nan 1 0 -0 0 0 0 0 -0 0 0 0 0 1 0 -0 -0 0 0 0 0 0 -0 -0 0 -0 -0 0 0 -0 0 0 -0 -1 -0 0 0 0 1 0 -1 -1 -0 0 0 0 -0 0 1 1 0 -0 -0 -0 0 0 0 -0 0 0 1 nan
nan 2 1 -0 -0 0 0 -0 0 0 0 0 0 0 1 0 -0 -0 -0 -0 -0 0 -0 -0 -0 -0 -0 0 0 -0 0 0 0 -0 -1 -0 0 0 0 0 0 -0 -0 0 1 0 0 0 0 1 1 0 0 0 0 0 -0 -0 0 0 1 nan
nan 1 1 0 0 -0 0 -0 0 0 0 -0 -0 -0 0 1 0 -0 -1 -0 -0 -0 -0 -0 -0 0 -0 -0 0 0 -0 -0 -0 0 -0 -0 0 0 0 1 1 0 -0 1 1 0 -0 -0 0 1 2 1 0 0 0 0 -0 -0 -0 0 0 nan
nan nan nan nan nan nan nan nan nan nan nan nan nan nan nan nan nan nan nan nan nan nan nan nan nan nan nan nan nan nan nan nan nan nan nan nan nan nan nan nan nan nan nan nan nan nan nan nan nan nan nan nan nan nan nan nan nan nan nan nan nan nan
Wind_Speed
9 7 8 9 8 9 9 9 8 8 7 7 7 8 8 9 9 8 9 9 8 8 7 6 5 5 5 4 4 4 4 4 4 5 5 6 6 7 7 7 7 8 9 9 8 9 11 12 12 11 9 9 9 8 9 9 9 7 3 9 9 9
11 10 8 9 9 8 9 9 9 8 8 7 8 8 9 9 9 8 8 7 7 7 6 6 6 6 6 5 6 5 4 4 4 4 5 5 6 7 8 9 10 10 10 11 9 9 10 12 12 11 10 9 9 8 9 8 5 4 4 10 9 9
13 12 9 8 9 8 8 9 9 9 8 8 8 8 9 9 8 8 6 5 6 5 4 6 6 5 6 5 5 4 4 4 3 4 5 5 6 7 9 11 12 11 11 11 12 11 11 12 13 12 11 10 9 9 8 6 4 4 6 9 8 11
15 14 10 9 10 9 9 9 9 9 8 9 9 9 9 8 7 6 5 4 5 4 3 5 5 5 6 4 3 4 5 4 3 4 4 5 6 6 9 10 11 12 11 11 12 13 13 13 13 12 12 11 11 10 8 7 6 5 7 10 11 13
17 14 13 10 9 10 10 9 9 9 9 10 9 9 8 7 7 5 4 4 4 4 3 4 4 4 5 4 4 4 4 4 3 3 5 5 5 6 9 11 10 12 12 11 13 13 12 11 10 11 12 11 10 9 8 7 7 6 7 12 12 12
16 14 15 11 9 10 10 8 8 8 9 9 9 9 9 8 8 8 7 6 6 6 4 4 4 2 3 3 4 3 4 5 4 4 6 6 7 8 10 11 12 12 12 12 11 9 9 8 7 9 8 8 9 7 7 8 7 7 8 11 12 12
14 13 15 14 12 11 12 11 9 10 9 9 9 9 9 10 9 10 9 7 7 7 5 4 4 3 3 3 2 2 3 4 4 5 5 6 7 6 6 8 8 7 8 8 6 5 6 6 6 7 7 8 9 7 8 9 7 8 7 10 12 13
15 13 14 16 13 13 14 13 12 12 11 10 11 9 9 9 9 10 9 8 8 8 6 5 5 4 4 4 3 2 1 1 2 2 3 3 2 2 2 3 3 3 4 4 4 5 4 4 7 7 7 8 8 7 8 8 8 9 7 10 13 13
18 14 12 14 12 13 13 13 13 12 12 12 11 9 10 9 9 11 9 8 9 9 8 7 6 5 5 5 5 4 3 3 2 2 1 0 1 2 1 2 3 3 2 2 2 4 4 4 6 6 7 8 7 7 8 7 8 8 8 9 12 13
20 15 14 14 13 13 13 14 13 12 13 13 11 10 11 9 8 10 10 10 10 10 10 9 9 7 6 5 5 4 3 3 2 2 2 1 1 1 3 4 3 2 3 3 4 2 5 3 4 6 7 8 8 9 9 8 9 8 8 9 11 14
19 16 16 16 14 14 14 14 12 11 13 12 12 13 12 10 9 9 11 12 11 11 10 10 10 9 7 6 4 3 3 3 2 1 2 2 2 1 1 3 3 5 2 4 3 4 5 4 6 6 6 7 7 8 9 8 9 9 8 9 9 14
19 18 16 17 16 14 14 14 12 12 13 12 14 15 12 11 12 11 11 12 13 12 11 10 9 8 8 7 5 3 4 4 4 2 2 3 2 2 1 1 4 6 5 1 2 5 5 6 7 6 6 6 5 5 8 8 9 9 8 9 9 10
20 20 18 18 17 14 13 15 15 14 13 13 15 15 12 11 13 13 11 11 13 13 12 11 9 8 8 8 7 6 5 5 4 3 4 6 4 2 1 2 3 4 4 2 3 4 4 5 4 3 4 7 3 5 7 6 8 8 8 10 9 8
20 21 20 18 18 17 16 15 16 16 14 15 16 14 12 12 13 14 13 11 13 13 13 12 10 9 8 7 8 8 6 5 4 6 6 4 4 3 2 3 3 4 5 3 0 2 2 3 2 2 5 5 4 5 6 4 6 6 6 8 8 9
19 21 21 19 19 19 17 15 16 17 16 16 16 14 14 14 15 15 14 12 13 14 14 13 12 10 9 9 9 9 7 6 6 7 5 3 5 3 2 5 6 6 5 3 2 1 3 4 3 4 6 6 5 8 7 3 4 3 4 6 7 10
17 19 20 20 20 19 17 16 16 16 17 17 17 15 15 16 16 16 15 14 13 14 14 13 13 11 10 11 10 9 7 6 7 8 6 5 6 3 4 7 8 8 6 6 5 4 5 6 6 6 8 8 7 10 9 6 5 4 6 7 7 8
17 17 18 18 19 19 18 18 18 18 18 18 18 17 16 16 17 16 15 15 14 14 14 13 13 12 11 11 10 9 6 6 8 7 7 7 6 5 8 10 9 9 7 7 6 4 6 7 7 8 9 9 10 12 11 9 6 6 7 6 5 4
16 16 16 15 16 18 18 18 18 19 20 20 20 19 17 16 17 17 15 15 15 14 13 13 13 13 12 11 10 8 6 7 7 6 7 8 8 8 11 12 12 11 8 8 7 5 6 7 7 9 9 9 11 12 12 10 5 7 6 5 5 4
16 16 16 15 14 15 16 16 17 19 20 21 21 20 19 17 16 17 16 15 15 15 14 13 13 13 13 11 10 10 9 8 7 6 7 9 10 10 13 15 14 13 11 11 9 4 6 7 8 9 9 8 10 11 11 8 6 8 3 7 6 4
19 17 17 17 16 15 15 15 16 17 19 21 21 20 20 18 16 15 15 16 16 17 16 15 15 14 14 13 13 13 13 13 12 12 13 13 12 10 12 16 17 16 15 14 10 4 6 7 8 9 8 8 9 10 9 8 7 6 3 11 6 3
21 20 19 19 19 17 17 16 16 17 18 19 18 18 19 19 19 16 15 16 16 18 19 18 16 15 16 17 17 17 16 17 18 18 16 15 14 12 13 16 18 18 17 17 11 7 8 7 6 7 8 8 8 8 8 9 7 2 5 12 7 3
21 21 20 19 19 18 18 17 16 16 17 17 17 17 17 17 19 19 17 16 16 17 19 18 16 15 17 17 16 16 16 17 19 19 19 18 17 17 18 18 19 21 20 20 14 11 10 7 4 7 9 9 8 7 6 8 7 4 7 12 6 2
21 21 19 19 18 17 17 16 14 14 14 15 15 15 14 15 16 17 18 18 15 14 14 13 13 12 12 15 16 16 17 18 21 23 22 22 21 20 20 20 21 22 23 22 19 16 13 8 7 9 9 7 6 8 6 7 7 7 9 10 7 2
18 18 18 17 16 15 15 14 13 14 15 15 14 13 13 13 12 12 12 12 11 12 13 12 11 10 12 18 19 18 19 21 22 24 24 23 22 21 21 22 23 24 24 24 21 19 17 12 10 9 8 6 6 8 5 6 7 9 9 8 6 6
13 13 14 15 14 14 15 15 15 17 18 17 16 15 11 7 9 10 10 12 14 15 15 15 15 14 16 21 22 20 21 21 22 23 24 23 23 23 23 23 23 24 25 26 23 21 19 16 12 11 10 9 7 7 6 8 10 8 6 6 6 9
12 13 14 13 12 14 15 15 16 18 19 16 13 13 10 10 16 17 16 18 18 17 17 18 20 20 19 21 23 23 22 21 21 21 22 23 23 24 26 25 24 25 26 27 25 22 22 20 17 14 13 13 11 10 11 11 10 7 6 6 7 9
13 16 16 12 10 13 14 15 16 16 16 13 12 13 15 17 19 19 19 19 19 19 18 19 21 22 21 22 24 24 23 23 22 21 22 25 25 26 27 28 27 27 28 27 25 23 23 22 20 17 15 15 15 14 13 12 9 8 8 6 6 7
12 18 16 12 11 15 15 13 14 14 16 17 16 17 18 19 20 21 22 22 22 22 20 20 22 23 23 22 23 25 25 25 25 25 25 26 27 28 29 30 30 30 30 29 26 23 22 21 21 20 17 16 16 15 14 12 10 8 7 7 7 6
13 18 17 14 13 14 13 12 13 15 17 18 18 19 20 21 21 21 23 24 25 24 23 24 24 24 22 21 22 25 26 26 27 27 26 26 28 30 30 32 32 31 31 31 29 25 22 20 19 19 19 17 16 15 13 11 10 8 6 6 8 6
9 16 15 14 12 12 12 11 13 16 17 17 18 19 20 22 22 23 24 25 24 23 23 24 24 24 23 21 21 24 24 23 24 26 28 28 29 31 31 32 33 32 32 32 30 28 25 22 18 18 19 18 17 15 12 9 8 7 6 7 9 8
6 12 11 11 12 13 13 13 14 16 16 16 16 17 20 21 21 22 23 23 22 21 21 21 22 22 20 18 18 21 23 21 20 22 27 29 30 32 32 33 34 33 33 33 32 30 28 24 22 21 20 20 19 16 13 10 9 9 10 11 11 10
10 9 9 11 13 13 13 13 13 14 14 14 14 15 16 16 17 18 18 19 19 19 19 19 20 20 19 18 18 20 21 20 19 21 24 28 31 33 34 34 34 35 34 34 34 32 29 26 25 23 23 22 21 17 15 14 13 13 14 13 12 11
14 10 9 10 10 10 11 11 10 11 12 12 13 14 14 14 14 15 15 15 16 16 16 16 18 20 21 19 18 18 19 18 18 19 22 27 30 32 34 35 36 37 37 37 36 34 32 29 26 24 24 24 22 19 18 17 15 15 14 13 12 10
19 11 8 7 7 7 7 8 8 10 11 11 13 14 14 14 13 13 15 16 16 16 15 15 16 17 17 17 16 16 16 17 16 16 18 24 29 31 33 35 38 40 40 40 39 36 33 31 28 24 24 25 24 22 19 17 16 16 15 13 11 9
28 20 11 7 5 3 2 3 5 8 10 11 13 14 15 15 15 16 18 19 18 17 16 16 15 15 16 16 17 17 17 16 16 16 17 20 26 31 32 34 37 40 41 41 39 37 34 32 29 25 23 24 25 23 20 18 17 17 15 14 12 10
28 26 21 14 8 5 3 1 2 6 9 11 13 14 16 16 16 17 17 18 18 17 16 16 16 17 19 19 19 20 20 18 17 19 21 20 22 28 32 33 36 39 40 40 39 38 37 35 33 30 25 24 26 25 22 19 19 18 16 14 13 11
26 25 23 20 15 12 9 7 4 4 8 11 12 12 14 15 16 17 16 16 17 16 17 18 18 18 19 19 19 19 20 19 20 22 23 22 21 24 29 32 36 39 40 41 40 38 37 35 36 36 31 27 27 27 25 22 21 19 17 15 13 11
Wind_Direction
145 147 152 145 145 144 140 140 135 129 124 122 120 112 105 103 106 107 106 108 110 110 114 116 116 112 107 104 93 85 80 75 67 55 51 46 46 46 41 42 41 41 42 42 49 48 41 37 37 40 48 50 51 48 43 38 18 13 264 266 289 316
155 157 162 148 148 152 146 142 138 137 135 134 134 125 117 111 110 113 112 117 112 97 111 113 99 102 102 99 95 90 85 74 69 61 54 52 50 51 49 47 44 44 43 38 37 32 29 31 28 24 26 31 35 33 33 26 359 3 303 280 295 321
156 161 162 150 151 157 152 146 143 142 145 145 142 134 128 124 122 123 116 122 112 89 94 93 92 113 104 94 93 84 79 64 64 66 58 55 46 52 55 48 42 39 38 35 30 22 17 21 18 13 12 13 17 16 14 0 338 358 317 294 312 323
163 165 155 158 156 162 163 152 151 150 154 154 146 140 137 135 132 122 109 115 114 113 111 92 107 120 103 101 94 77 70 54 53 62 61 56 47 59 54 41 35 31 29 28 25 22 15 9 4 358 357 359 5 358 349 344 337 342 314 308 321 322
173 164 156 166 157 165 171 158 159 159 160 159 153 147 144 145 144 140 135 138 143 151 149 127 124 106 109 122 102 88 69 48 42 55 66 59 48 58 43 28 29 26 23 22 22 21 11 1 352 345 347 350 352 345 339 344 333 330 319 311 316 319
172 163 159 164 165 169 163 161 172 167 168 168 162 158 158 165 166 167 164 167 176 172 161 148 136 101 113 107 82 77 52 42 39 36 47 44 29 30 24 18 20 14 11 16 19 10 353 356 353 346 346 340 348 346 337 343 334 335 326 308 313 320
167 176 163 161 176 171 156 171 188 177 175 178 176 175 174 178 180 175 173 179 182 173 167 166 157 150 145 109 76 39 16 21 31 24 20 31 26 14 13 13 11 6 4 5 10 1 345 349 349 351 348 342 355 354 335 345 344 341 329 309 316 319
170 195 174 164 177 167 161 179 193 182 172 187 192 185 185 188 187 182 179 180 179 171 174 185 177 172 170 150 161 194 179 8 22 35 14 29 23 347 43 40 23 41 21 10 12 355 349 355 348 350 352 345 351 349 338 346 344 342 336 315 317 319
172 194 179 171 177 169 171 182 195 185 170 194 203 188 192 196 192 191 186 181 180 175 176 183 185 185 180 169 176 183 175 184 189 161 153 114 85 346 7 80 58 43 25 54 45 344 352 7 351 352 357 347 342 344 339 339 339 338 337 323 317 319
173 183 177 178 179 176 179 185 197 188 180 195 195 196 203 197 196 199 192 187 186 183 181 181 187 189 182 181 178 173 185 183 157 137 136 62 54 355 348 35 40 295 229 184 152 69 359 356 16 5 356 348 344 344 338 338 344 340 340 335 319 319
173 174 182 185 180 184 181 186 197 188 197 199 186 204 207 188 193 205 205 196 193 194 191 188 188 186 180 184 185 174 183 162 140 147 119 63 339 253 16 29 295 283 253 195 152 70 3 13 39 12 1 355 347 349 344 342 347 344 341 336 326 325
175 173 187 191 181 191 185 182 194 188 203 207 198 212 210 194 194 201 215 205 199 202 198 197 193 189 185 175 185 202 196 185 172 178 168 170 243 253 206 310 304 336 6 339 40 38 4 20 29 11 1 336 325 346 340 343 347 343 338 334 336 330
178 175 187 195 180 191 194 185 194 190 200 212 213 221 217 212 208 205 214 206 199 204 199 202 202 199 194 173 187 208 202 209 180 181 224 201 199 228 247 300 326 339 336 326 28 42 357 359 17 2 315 298 325 346 330 354 347 332 338 337 336 330
183 181 187 194 180 188 200 193 195 190 194 215 221 223 218 218 224 220 216 203 198 205 203 205 209 205 200 185 202 216 200 205 200 209 236 223 208 223 256 264 248 246 246 253 206 102 351 320 317 305 299 315 7 334 322 0 329 316 346 343 329 329
189 189 189 191 186 191 199 199 201 192 194 216 223 220 216 216 228 232 223 210 204 211 211 208 214 212 205 203 210 222 212 203 215 231 244 240 229 225 257 261 255 249 250 280 282 298 316 303 314 320 331 355 356 328 336 355 322 331 19 359 335 339
197 196 193 190 191 193 197 203 204 197 199 216 221 216 218 220 228 234 231 224 215 216 217 213 218 221 218 216 216 223 225 211 220 241 242 239 248 242 245 256 256 259 278 297 293 315 315 310 326 336 344 351 340 339 353 1 2 49 55 23 347 346
205 202 199 195 194 192 197 207 205 200 205 218 220 214 217 224 229 232 233 233 230 223 222 221 220 225 230 227 224 223 232 235 235 250 254 254 265 262 260 263 260 264 282 287 280 297 307 310 325 337 341 343 342 346 355 357 15 60 48 19 343 342
211 207 207 206 203 197 199 209 209 204 208 219 222 215 213 220 229 232 229 230 237 234 228 226 227 228 230 233 231 220 224 245 245 257 272 273 273 269 269 268 265 267 270 273 269 275 294 303 321 333 332 341 347 344 351 354 26 62 33 342 339 353
216 214 213 216 214 205 204 212 215 212 213 220 224 220 214 214 227 235 230 224 232 241 238 232 232 232 232 234 229 214 214 235 245 252 259 260 259 267 274 273 273 271 269 269 263 275 300 299 320 329 323 337 345 340 351 1 38 69 15 314 334 336
219 221 218 219 216 209 212 217 219 220 221 225 228 227 220 213 219 232 237 230 226 237 243 236 230 232 234 229 224 224 231 239 240 238 237 241 244 254 270 275 277 273 270 268 258 262 283 284 311 319 315 329 339 341 347 349 20 77 315 322 351 333
220 224 224 222 219 215 219 223 225 229 231 233 234 235 232 225 222 222 229 234 230 232 240 241 234 229 230 229 229 234 240 241 239 236 234 239 244 246 256 269 276 276 274 270 257 240 252 270 305 306 304 315 330 345 332 324 350 58 305 331 7 347
222 224 227 225 222 224 228 228 230 235 238 241 240 239 240 240 238 230 224 229 232 234 240 245 243 230 226 235 243 242 244 245 245 244 238 237 241 242 250 260 267 271 272 271 264 246 248 263 278 279 293 308 327 343 314 294 304 307 311 328 5 13
224 224 227 226 223 228 232 228 233 243 248 249 249 248 245 247 255 249 235 228 229 237 243 247 249 241 239 250 255 253 250 247 249 251 246 242 240 239 244 250 256 263 267 269 266 255 251 252 257 272 289 301 317 324 305 260 270 308 317 324 8 346
220 227 230 229 224 228 234 231 233 244 250 251 252 257 249 247 263 263 250 248 257 272 277 272 272 275 273 265 260 257 253 250 252 255 254 251 249 246 246 248 252 256 260 263 263 257 250 244 249 262 271 274 290 305 288 235 270 309 307 313 352 288
213 229 229 229 227 231 238 237 238 244 248 248 249 251 246 268 322 324 305 293 284 279 277 276 275 274 270 265 262 258 254 252 252 254 257 257 256 257 255 254 256 256 257 260 260 256 248 241 239 246 255 261 268 266 248 262 291 301 287 301 312 285
206 216 210 215 231 239 237 234 239 247 249 248 256 265 268 302 324 321 305 293 281 269 267 271 271 267 265 266 266 263 256 252 250 251 257 260 259 258 257 258 260 262 262 262 261 255 248 243 237 237 248 254 255 252 254 276 292 283 273 286 289 293
207 217 210 209 230 236 227 227 238 253 261 263 279 295 296 294 295 294 290 289 284 273 269 271 268 264 262 263 264 262 255 251 249 246 251 257 259 256 256 258 259 262 265 267 265 253 244 244 240 235 242 249 253 256 260 270 277 277 282 284 287 306
211 224 221 212 224 230 228 240 257 267 272 271 278 288 291 287 281 279 279 278 278 274 270 270 268 265 263 262 260 259 260 258 251 245 245 250 252 253 255 256 257 259 262 265 267 255 240 242 246 240 240 247 250 253 260 267 274 282 286 290 298 307
207 222 220 213 224 239 243 261 274 272 269 270 277 280 282 283 278 274 273 273 273 272 270 271 272 270 266 260 258 260 263 262 256 252 249 247 246 249 252 254 255 257 260 263 265 260 243 238 249 248 242 245 249 252 260 266 274 282 281 278 284 290
197 220 212 208 224 246 252 261 268 268 269 273 278 278 277 280 277 272 271 273 273 272 273 274 274 271 265 262 263 265 264 262 262 260 256 251 247 247 249 252 254 254 257 260 261 260 251 239 242 248 246 247 250 252 254 253 256 260 254 253 262 272
179 213 193 192 212 232 240 246 253 261 270 275 274 273 273 277 280 278 277 280 278 273 275 277 276 273 270 270 271 270 269 267 269 264 256 251 249 250 250 250 251 253 255 256 256 257 255 245 238 241 244 246 251 255 252 245 238 235 237 244 253 263
157 168 159 176 200 220 233 242 250 260 267 268 267 271 276 281 288 291 290 292 291 285 283 285 286 286 286 288 284 282 280 275 271 266 259 253 250 251 252 251 250 250 251 253 253 252 252 247 237 239 245 247 251 253 247 243 241 243 250 253 256 265
133 139 154 166 182 209 232 245 251 258 261 261 261 268 279 285 289 294 298 301 306 307 301 294 291 290 292 293 290 289 288 281 273 267 262 261 257 253 253 252 251 250 249 250 252 251 252 250 240 238 246 250 253 251 245 249 250 253 260 262 264 272
93 119 160 163 159 178 211 239 247 256 263 263 261 266 282 290 288 293 302 307 309 311 308 303 298 294 292 291 288 287 287 284 278 268 263 261 259 255 252 251 251 251 250 250 252 251 252 250 242 239 246 250 253 254 250 250 253 257 262 265 268 270
73 84 105 143 167 153 172 246 262 269 270 269 268 276 289 292 288 291 298 304 310 313 313 310 304 298 293 289 288 288 287 283 279 281 280 270 259 254 251 251 250 249 249 250 252 251 251 249 241 238 245 250 251 253 253 249 250 256 262 264 265 264
63 66 76 92 106 94 79 58 289 291 294 293 290 293 298 299 300 302 305 307 311 313 311 307 300 296 295 293 291 289 286 283 284 288 288 283 269 258 254 252 247 246 248 249 248 247 248 250 247 241 244 250 248 246 247 245 246 253 258 259 260 261
64 62 66 71 77 78 72 66 43 346 335 327 321 315 310 309 309 308 308 309 310 311 307 301 297 295 296 298 297 291 286 285 287 289 286 282 276 265 258 256 250 248 249 247 244 243 243 249 252 247 241 245 247 244 243 241 242 249 252 253 255 259
Height
1530 1531 1531 1531 1532 1533 1534 1534 1535 1536 1537 1538 1538 1539 1539 1539 1540 1540 1541 1541 1541 1542 1542 1543 1543 1544 1544 1545 1545 1546 1546 1547 1547 1548 1548 1548 1548 1548 1548 1549 1549 1549 1549 1549 1549 1549 1549 1549 1549 1549 1549 1549 1549 1549 1548 1548 1547 1550 1549 1546 1546 1546
1532 1531 1531 1532 1533 1533 1534 1535 1535 1536 1537 1538 1538 1539 1539 1539 1540 1540 1541 1541 1541 1542 1542 1543 1543 1544 1544 1545 1545 1546 1546 1547 1548 1548 1548 1548 1549 1549 1549 1549 1549 1549 1549 1549 1549 1549 1549 1549 1549 1550 1550 1549 1549 1549 1549 1548 1549 1550 1549 1547 1547 1546
1532 1532 1532 1532 1533 1534 1534 1535 1536 1536 1537 1537 1538 1539 1539 1539 1540 1540 1541 1541 1541 1541 1542 1542 1543 1544 1544 1545 1546 1546 1547 1547 1548 1548 1548 1549 1549 1549 1550 1550 1550 1550 1550 1550 1550 1550 1550 1549 1550 1550 1550 1550 1550 1549 1549 1550 1550 1550 1548 1547 1547 1546
1533 1533 1532 1532 1533 1534 1535 1535 1536 1536 1537 1537 1538 1538 1539 1539 1539 1540 1540 1541 1541 1541 1542 1542 1543 1544 1544 1545 1546 1546 1547 1547 1548 1548 1549 1549 1550 1550 1550 1550 1550 1551 1550 1550 1550 1550 1549 1549 1550 1550 1550 1550 1550 1550 1550 1550 1550 1550 1549 1547 1547 1546
1533 1533 1533 1533 1533 1534 1534 1535 1535 1536 1536 1537 1537 1538 1538 1538 1539 1539 1540 1540 1541 1542 1542 1543 1544 1544 1545 1546 1546 1547 1547 1548 1548 1548 1549 1549 1550 1550 1550 1550 1551 1551 1551 1551 1550 1550 1550 1551 1551 1551 1551 1551 1551 1551 1551 1551 1550 1550 1549 1547 1547 1546
1532 1532 1533 1533 1533 1533 1534 1535 1535 1535 1536 1536 1537 1537 1538 1538 1539 1539 1540 1540 1541 1542 1542 1543 1544 1544 1545 1545 1546 1547 1547 1548 1548 1548 1549 1549 1549 1549 1550 1550 1550 1550 1551 1551 1551 1552 1552 1553 1553 1553 1553 1552 1552 1552 1551 1551 1550 1550 1549 1547 1547 1546
1531 1532 1532 1533 1533 1533 1534 1535 1535 1535 1535 1536 1536 1537 1537 1538 1539 1539 1540 1541 1541 1542 1542 1543 1544 1545 1545 1546 1546 1547 1548 1548 1548 1548 1549 1549 1550 1550 1551 1551 1551 1551 1552 1552 1553 1554 1554 1553 1553 1553 1553 1553 1552 1552 1551 1551 1550 1550 1549 1547 1547 1547
1531 1530 1531 1532 1533 1533 1534 1535 1535 1535 1535 1536 1536 1536 1537 1537 1538 1539 1540 1540 1541 1542 1543 1543 1544 1545 1545 1546 1547 1548 1548 1548 1549 1549 1550 1550 1551 1551 1551 1551 1551 1551 1552 1552 1553 1553 1553 1553 1553 1553 1552 1552 1552 1552 1551 1551 1550 1550 1549 1548 1546 1546
1529 1529 1530 1531 1531 1532 1533 1534 1534 1534 1535 1535 1536 1536 1537 1537 1538 1539 1539 1540 1541 1541 1542 1543 1544 1544 1545 1546 1547 1547 1548 1549 1549 1549 1550 1551 1551 1551 1550 1550 1550 1550 1550 1551 1551 1551 1551 1551 1552 1552 1552 1552 1552 1551 1551 1551 1550 1550 1549 1548 1546 1546
1527 1528 1529 1529 1530 1531 1532 1533 1533 1533 1534 1535 1535 1536 1536 1537 1537 1538 1539 1539 1540 1541 1541 1542 1543 1544 1544 1545 1546 1547 1547 1548 1548 1549 1550 1550 1551 1551 1550 1550 1550 1550 1549 1549 1549 1550 1550 1550 1550 1550 1551 1551 1551 1551 1550 1550 1550 1550 1550 1549 1547 1546
1525 1526 1527 1528 1528 1529 1530 1532 1532 1533 1533 1534 1535 1535 1535 1536 1537 1537 1538 1539 1540 1540 1541 1541 1542 1543 1544 1544 1545 1546 1547 1547 1548 1549 1550 1550 1551 1550 1551 1551 1550 1550 1549 1549 1549 1549 1549 1549 1549 1550 1551 1551 1551 1550 1550 1549 1549 1549 1549 1549 1547 1546
1523 1524 1525 1526 1527 1528 1529 1530 1531 1532 1532 1532 1533 1533 1534 1535 1536 1537 1537 1538 1539 1540 1540 1541 1542 1542 1543 1544 1545 1546 1546 1547 1548 1549 1550 1550 1550 1550 1550 1551 1551 1550 1549 1549 1549 1549 1549 1549 1548 1549 1550 1549 1549 1549 1549 1549 1549 1549 1549 1548 1548 1546
1521 1522 1523 1524 1525 1526 1527 1528 1529 1530 1531 1531 1531 1532 1533 1534 1535 1536 1536 1537 1538 1539 1540 1541 1541 1542 1543 1544 1545 1546 1546 1547 1548 1549 1549 1549 1549 1550 1550 1550 1550 1550 1550 1549 1549 1549 1549 1548 1548 1548 1548 1547 1547 1548 1547 1548 1548 1548 1548 1548 1547 1547
1519 1520 1521 1522 1524 1525 1526 1527 1527 1528 1530 1530 1531 1532 1533 1533 1534 1535 1535 1536 1537 1538 1539 1540 1541 1542 1543 1544 1545 1545 1546 1547 1547 1548 1548 1549 1549 1549 1550 1550 1550 1550 1550 1550 1549 1549 1548 1548 1548 1547 1547 1546 1546 1546 1546 1546 1546 1546 1547 1547 1547 1546
1517 1518 1520 1521 1522 1524 1524 1525 1526 1528 1529 1530 1530 1531 1532 1533 1533 1533 1534 1535 1536 1537 1538 1539 1541 1542 1543 1544 1544 1545 1546 1547 1547 1548 1548 1549 1549 1549 1550 1550 1549 1549 1549 1549 1549 1549 1549 1548 1547 1547 1546 1546 1546 1545 1545 1544 1544 1544 1545 1546 1547 1546
1516 1517 1519 1520 1521 1523 1524 1525 1526 1528 1529 1529 1529 1530 1531 1531 1532 1533 1533 1534 1536 1537 1538 1539 1540 1541 1542 1543 1544 1545 1545 1546 1547 1548 1549 1549 1549 1550 1550 1549 1549 1549 1549 1549 1549 1549 1549 1549 1548 1547 1546 1546 1545 1545 1544 1543 1543 1543 1544 1545 1546 1546
1515 1516 1518 1519 1521 1522 1524 1525 1526 1527 1528 1528 1528 1529 1530 1531 1532 1533 1533 1534 1536 1537 1539 1540 1541 1542 1543 1544 1545 1545 1547 1547 1548 1549 1549 1549 1549 1549 1549 1549 1549 1549 1549 1549 1549 1549 1550 1549 1549 1548 1547 1546 1545 1545 1544 1543 1543 1543 1543 1544 1545 1545
1514 1516 1517 1519 1520 1522 1523 1525 1526 1526 1527 1526 1527 1528 1530 1531 1532 1533 1534 1535 1536 1538 1540 1541 1542 1543 1544 1545 1546 1547 1547 1547 1548 1549 1550 1549 1549 1548 1548 1548 1548 1549 1549 1548 1548 1549 1549 1549 1549 1548 1547 1546 1545 1545 1544 1543 1543 1543 1543 1544 1544 1544
1514 1515 1517 1518 1520 1522 1523 1524 1525 1525 1526 1526 1526 1528 1530 1532 1533 1534 1535 1537 1538 1538 1540 1541 1542 1543 1544 1545 1546 1546 1546 1546 1548 1549 1548 1547 1547 1547 1547 1547 1547 1548 1548 1548 1548 1548 1548 1548 1549 1548 1547 1546 1545 1545 1544 1543 1543 1543 1543 1543 1543 1543
1514 1515 1516 1517 1519 1521 1522 1523 1524 1524 1524 1525 1526 1528 1530 1532 1534 1535 1536 1537 1537 1537 1538 1539 1540 1541 1543 1543 1543 1544 1544 1545 1546 1546 1545 1544 1544 1546 1546 1546 1546 1547 1547 1547 1547 1547 1547 1547 1548 1548 1547 1546 1545 1545 1544 1543 1543 1542 1542 1542 1542 1542
1513 1514 1515 1517 1518 1520 1521 1522 1523 1523 1524 1525 1527 1529 1530 1532 1533 1535 1535 1535 1536 1536 1536 1537 1539 1540 1541 1540 1541 1542 1542 1543 1544 1544 1544 1544 1544 1545 1545 1546 1546 1546 1546 1546 1547 1546 1546 1546 1547 1547 1547 1546 1545 1544 1543 1543 1542 1542 1541 1541 1540 1541
1513 1514 1516 1517 1519 1520 1521 1522 1523 1524 1525 1526 1528 1530 1531 1532 1532 1534 1535 1536 1536 1537 1537 1538 1540 1540 1540 1541 1542 1543 1544 1544 1545 1545 1544 1543 1542 1543 1544 1545 1546 1546 1546 1545 1546 1546 1545 1546 1546 1546 1546 1546 1545 1544 1543 1543 1542 1542 1541 1540 1539 1539
1513 1515 1517 1519 1521 1522 1523 1525 1526 1526 1528 1528 1530 1531 1532 1533 1534 1534 1534 1534 1535 1536 1538 1541 1543 1543 1545 1546 1546 1545 1544 1544 1545 1544 1543 1542 1541 1541 1541 1542 1543 1545 1545 1544 1544 1544 1544 1545 1545 1545 1546 1545 1544 1543 1543 1543 1542 1541 1540 1539 1539 1538
1515 1517 1519 1520 1522 1523 1524 1525 1527 1528 1528 1529 1531 1532 1533 1534 1533 1532 1533 1536 1538 1539 1541 1543 1545 1547 1548 1547 1545 1544 1544 1544 1544 1544 1544 1544 1543 1542 1541 1540 1541 1542 1542 1543 1542 1542 1541 1542 1543 1544 1544 1544 1544 1543 1543 1542 1541 1541 1540 1539 1538 1537
1517 1518 1519 1521 1523 1523 1523 1524 1526 1527 1528 1530 1532 1531 1531 1532 1531 1533 1537 1539 1539 1539 1539 1541 1542 1544 1543 1542 1542 1542 1542 1543 1544 1543 1543 1544 1544 1543 1542 1541 1540 1540 1540 1540 1540 1540 1539 1539 1540 1541 1542 1542 1543 1542 1542 1541 1540 1540 1539 1538 1538 1537
1519 1517 1519 1521 1522 1521 1521 1523 1525 1527 1529 1531 1531 1530 1533 1535 1535 1537 1537 1535 1534 1533 1535 1537 1537 1537 1538 1538 1539 1539 1540 1542 1543 1544 1544 1543 1542 1542 1541 1540 1540 1539 1539 1538 1539 1538 1537 1536 1537 1538 1539 1540 1540 1541 1540 1540 1539 1538 1538 1537 1537 1536
1520 1518 1519 1522 1523 1522 1522 1523 1525 1528 1531 1531 1532 1533 1537 1536 1534 1534 1532 1532 1532 1531 1532 1534 1533 1533 1533 1534 1535 1535 1537 1539 1540 1542 1542 1540 1539 1538 1538 1537 1537 1536 1536 1536 1536 1537 1535 1534 1534 1535 1536 1537 1538 1539 1539 1538 1538 1537 1536 1536 1535 1535
1519 1518 1520 1523 1523 1522 1522 1523 1525 1528 1530 1531 1532 1533 1533 1531 1530 1530 1529 1530 1530 1529 1529 1530 1529 1528 1529 1530 1531 1531 1532 1533 1534 1535 1534 1534 1534 1534 1534 1533 1533 1533 1533 1533 1533 1534 1535 1534 1532 1532 1533 1534 1535 1536 1536 1536 1536 1535 1535 1534 1533 1533
1516 1515 1519 1523 1523 1522 1523 1524 1524 1525 1527 1528 1529 1528 1528 1526 1527 1526 1526 1526 1527 1527 1527 1527 1527 1526 1526 1527 1528 1527 1528 1530 1530 1531 1530 1529 1530 1530 1530 1529 1529 1530 1530 1530 1531 1531 1533 1533 1532 1531 1530 1531 1533 1533 1534 1534 1533 1533 1533 1532 1532 1532
1513 1512 1517 1522 1524 1523 1524 1524 1523 1522 1524 1526 1526 1526 1525 1524 1523 1523 1522 1523 1524 1525 1525 1525 1525 1524 1523 1524 1525 1526 1526 1527 1528 1529 1528 1527 1526 1526 1526 1527 1527 1527 1527 1527 1527 1527 1529 1531 1532 1531 1529 1529 1530 1531 1532 1532 1531 1531 1531 1531 1530 1530
1510 1511 1516 1521 1523 1523 1524 1524 1523 1522 1522 1523 1523 1522 1522 1521 1520 1520 1520 1520 1521 1522 1523 1522 1522 1522 1522 1523 1524 1524 1524 1525 1525 1525 1524 1523 1523 1523 1524 1524 1525 1525 1524 1524 1523 1523 1524 1527 1528 1529 1528 1527 1528 1529 1529 1530 1530 1529 1529 1529 1529 1529
1509 1511 1516 1519 1521 1522 1522 1523 1522 1522 1521 1521 1521 1520 1520 1519 1519 1518 1518 1518 1519 1520 1521 1521 1522 1521 1522 1522 1522 1522 1521 1522 1522 1522 1521 1520 1521 1521 1521 1522 1522 1522 1522 1521 1520 1520 1520 1522 1524 1525 1526 1526 1527 1527 1527 1528 1528 1528 1527 1527 1527 1526
1512 1514 1515 1518 1520 1521 1521 1521 1522 1521 1520 1519 1519 1518 1518 1518 1518 1518 1517 1517 1517 1518 1519 1520 1520 1520 1520 1520 1519 1519 1518 1518 1519 1519 1518 1518 1518 1519 1519 1520 1519 1519 1519 1518 1518 1518 1518 1518 1520 1522 1523 1524 1525 1525 1525 1526 1526 1525 1525 1525 1525 1524
1516 1517 1517 1518 1520 1520 1519 1520 1521 1520 1519 1518 1517 1517 1517 1517 1517 1516 1515 1515 1516 1516 1517 1517 1518 1517 1517 1517 1516 1516 1516 1515 1515 1515 1516 1515 1515 1515 1516 1516 1516 1515 1515 1515 1515 1516 1516 1516 1517 1518 1520 1522 1522 1523 1523 1523 1523 1523 1523 1523 1523 1522
1518 1519 1520 1520 1520 1520 1520 1520 1519 1519 1518 1517 1516 1515 1515 1515 1515 1515 1514 1514 1514 1514 1515 1515 1515 1514 1514 1514 1513 1513 1513 1513 1512 1513 1513 1513 1513 1512 1513 1513 1512 1511 1512 1512 1512 1512 1513 1513 1513 1514 1517 1519 1520 1520 1521 1521 1521 1521 1520 1521 1520 1520
1519 1520 1520 1520 1520 1520 1520 1519 1518 1518 1517 1516 1515 1514 1513 1513 1513 1513 1513 1513 1512 1513 1513 1512 1512 1512 1511 1511 1511 1511 1510 1510 1510 1510 1510 1510 1509 1509 1510 1510 1509 1509 1510 1510 1510 1509 1509 1510 1510 1511 1513 1517 1518 1518 1519 1519 1518 1518 1518 1518 1518 1518
1520 1520 1520 1521 1520 1520 1520 1519 1518 1517 1516 1515 1515 1514 1513 1513 1512 1512 1512 1511 1511 1511 1510 1510 1510 1509 1509 1508 1508 1508 1507 1507 1507 1507 1507 1506 1506 1506 1506 1506 1506 1506 1506 1506 1507 1507 1507 1507 1508 1508 1509 1513 1516 1516 1517 1517 1516 1516 1516 1516 1516 1516